When you browse on this site, cookies collect data to enhance your experience and personalize the content and advertising you see.
Visit our Privacy Policy to learn more. By continuing to use the site, you agree to this use of cookies and data.
  • In Hungary
  • List of Countries
  • For 7 days
  • Water Temperature
  • Weather Map
  • News
  • Weather Widgets
  • user-avatar
    Login

    Hourly Weather Volchkovo

    Today, 30 March, Monday

    Time Temperature Precipitation Wind Pressure Humidity
    00:00 +8°C° 0 mm 3 mps 745 mmHg 60%
    01:00 +8°C° 0 mm 3 mps 744 mmHg 63%
    02:00 +7°C° 0 mm 3 mps 744 mmHg 66%
    03:00 +7°C° 0 mm 2 mps 744 mmHg 69%
    04:00 +7°C° 0 mm 2 mps 743 mmHg 72%
    05:00 +6°C° 0 mm 2 mps 743 mmHg 74%
    06:00 +6°C° 0 mm 2 mps 742 mmHg 76%
    07:00 +7°C° 0 mm 2 mps 742 mmHg 72%
    08:00 +8°C° 0 mm 3 mps 742 mmHg 68%
    09:00 +8°C° 0 mm 3 mps 742 mmHg 64%
    10:00 +9°C° 0 mm 3 mps 742 mmHg 60%
    11:00 +10°C° 0 mm 3 mps 742 mmHg 56%
    12:00 +11°C° 0 mm 3 mps 742 mmHg 52%
    13:00 +12°C° 0 mm 3 mps 742 mmHg 49%
    14:00 +12°C° 0 mm 3 mps 742 mmHg 46%
    15:00 +13°C° 0 mm 3 mps 742 mmHg 43%
    16:00 +11°C° 0 mm 3 mps 742 mmHg 48%
    17:00 +10°C° 0 mm 3 mps 742 mmHg 53%
    18:00 +9°C° 0 mm 3 mps 742 mmHg 59%
    19:00 +7°C° 0 mm 3 mps 742 mmHg 66%
    20:00 +4°C° 0 mm 4 mps 742 mmHg 73%
    21:00 +1°C° 0 mm 4 mps 743 mmHg 80%
    22:00 0°C° 0 mm 4 mps 742 mmHg 81%
    23:00 0°C° 0 mm 4 mps 742 mmHg 82%

    Tomorrow, 31 March, Tuesday

    Time Temperature Precipitation Wind Pressure Humidity
    00:00 -1°C° 0 mm 4 mps 742 mmHg 83%
    01:00 -1°C° 0.2 mm 4 mps 742 mmHg 86%
    02:00 -2°C° 0.2 mm 4 mps 742 mmHg 88%
    03:00 -2°C° 0.2 mm 4 mps 742 mmHg 90%
    04:00 -3°C° 0.4 mm 4 mps 742 mmHg 91%
    05:00 -4°C° 0.4 mm 4 mps 742 mmHg 91%
    06:00 -4°C° 0.4 mm 4 mps 742 mmHg 92%
    07:00 -4°C° 0.4 mm 4 mps 742 mmHg 90%
    08:00 -4°C° 0.4 mm 4 mps 742 mmHg 89%
    09:00 -4°C° 0.4 mm 4 mps 743 mmHg 87%
    10:00 -4°C° 0.4 mm 4 mps 743 mmHg 85%
    11:00 -3°C° 0.4 mm 4 mps 743 mmHg 83%
    12:00 -4°C° 0.4 mm 5 mps 743 mmHg 81%
    13:00 -4°C° 0.2 mm 5 mps 744 mmHg 80%
    14:00 -4°C° 0.2 mm 5 mps 744 mmHg 79%
    15:00 -4°C° 0.2 mm 6 mps 745 mmHg 78%
    16:00 -4°C° 0.1 mm 6 mps 745 mmHg 78%
    17:00 -5°C° 0.1 mm 6 mps 746 mmHg 78%
    18:00 -6°C° 0.1 mm 6 mps 746 mmHg 78%
    19:00 -6°C° 0 mm 6 mps 747 mmHg 78%
    20:00 -7°C° 0 mm 5 mps 748 mmHg 79%
    21:00 -7°C° 0 mm 4 mps 749 mmHg 79%
    22:00 -8°C° 0 mm 4 mps 749 mmHg 78%
    23:00 -8°C° 0 mm 4 mps 749 mmHg 76%

    Day after tomorrow, 1 April, Wednesday

    Time Temperature Precipitation Wind Pressure Humidity
    00:00 -8°C° 0 mm 4 mps 749 mmHg 74%
    01:00 -8°C° 0 mm 4 mps 749 mmHg 74%
    02:00 -7°C° 0 mm 3 mps 749 mmHg 73%
    03:00 -7°C° 0 mm 3 mps 749 mmHg 73%
    04:00 -7°C° 0 mm 3 mps 749 mmHg 74%
    05:00 -8°C° 0 mm 3 mps 749 mmHg 76%
    06:00 -8°C° 0 mm 3 mps 749 mmHg 77%
    07:00 -7°C° 0 mm 3 mps 749 mmHg 67%
    08:00 -5°C° 0 mm 4 mps 749 mmHg 58%
    09:00 -4°C° 0 mm 4 mps 749 mmHg 48%
    10:00 -3°C° 0 mm 4 mps 749 mmHg 46%
    11:00 -2°C° 0 mm 4 mps 748 mmHg 44%
    12:00 -1°C° 0 mm 5 mps 748 mmHg 41%
    13:00 -1°C° 0 mm 5 mps 748 mmHg 42%
    14:00 -1°C° 0 mm 5 mps 747 mmHg 43%
    15:00 -2°C° 0 mm 6 mps 747 mmHg 43%
    16:00 -1°C° 0 mm 5 mps 746 mmHg 47%
    17:00 -1°C° 0 mm 4 mps 746 mmHg 51%
    18:00 -2°C° 0 mm 4 mps 745 mmHg 54%
    19:00 -2°C° 0 mm 4 mps 745 mmHg 57%
    20:00 -2°C° 0 mm 4 mps 745 mmHg 60%
    21:00 -2°C° 0 mm 4 mps 745 mmHg 63%
    22:00 -2°C° 0 mm 4 mps 744 mmHg 66%
    23:00 -2°C° 0 mm 4 mps 744 mmHg 69%

    2 April, Thursday

    Time Temperature Precipitation Wind Pressure Humidity
    00:00 -2°C° 0 mm 5 mps 743 mmHg 72%
    01:00 -2°C° 0.1 mm 5 mps 743 mmHg 79%
    02:00 -2°C° 0.1 mm 5 mps 743 mmHg 86%
    03:00 -4°C° 0.1 mm 5 mps 743 mmHg 93%
    04:00 -2°C° 0.1 mm 5 mps 743 mmHg 91%
    05:00 -2°C° 0.1 mm 5 mps 743 mmHg 90%
    06:00 -2°C° 0.1 mm 5 mps 743 mmHg 89%
    07:00 -2°C° 0 mm 5 mps 743 mmHg 85%
    08:00 -1°C° 0 mm 5 mps 743 mmHg 81%
    09:00 0°C° 0 mm 5 mps 743 mmHg 76%
    10:00 0°C° 0 mm 5 mps 743 mmHg 74%
    11:00 +1°C° 0 mm 5 mps 743 mmHg 72%
    12:00 +1°C° 0 mm 5 mps 744 mmHg 71%
    13:00 +1°C° 0 mm 5 mps 744 mmHg 71%
    14:00 +1°C° 0 mm 5 mps 744 mmHg 72%
    15:00 +1°C° 0 mm 5 mps 744 mmHg 73%
    16:00 +1°C° 0 mm 4 mps 744 mmHg 76%
    17:00 +1°C° 0 mm 4 mps 744 mmHg 79%
    18:00 +2°C° 0 mm 3 mps 744 mmHg 82%
    19:00 +1°C° 0 mm 3 mps 744 mmHg 85%
    20:00 +1°C° 0 mm 3 mps 744 mmHg 88%
    21:00 0°C° 0 mm 3 mps 744 mmHg 91%
    22:00 0°C° 0 mm 3 mps 744 mmHg 91%
    23:00 0°C° 0 mm 3 mps 744 mmHg 92%

    3 April, Friday

    Time Temperature Precipitation Wind Pressure Humidity
    00:00 0°C° 0 mm 3 mps 744 mmHg 92%
    01:00 0°C° 0.1 mm 3 mps 744 mmHg 93%
    02:00 0°C° 0.1 mm 3 mps 744 mmHg 95%
    03:00 +1°C° 0.1 mm 3 mps 745 mmHg 96%
    04:00 +1°C° 0 mm 3 mps 745 mmHg 96%
    05:00 0°C° 0 mm 3 mps 745 mmHg 95%
    06:00 0°C° 0 mm 3 mps 745 mmHg 95%
    07:00 0°C° 0 mm 4 mps 745 mmHg 91%
    08:00 +1°C° 0 mm 4 mps 746 mmHg 87%
    09:00 +1°C° 0 mm 4 mps 746 mmHg 83%
    10:00 +2°C° 0 mm 5 mps 746 mmHg 78%
    11:00 +3°C° 0 mm 5 mps 746 mmHg 74%
    12:00 +5°C° 0 mm 5 mps 746 mmHg 69%
    13:00 +5°C° 0 mm 5 mps 746 mmHg 67%
    14:00 +6°C° 0 mm 5 mps 746 mmHg 65%
    15:00 +6°C° 0 mm 5 mps 746 mmHg 62%
    16:00 +6°C° 0 mm 4 mps 746 mmHg 64%
    17:00 +6°C° 0 mm 4 mps 746 mmHg 66%
    18:00 +7°C° 0 mm 3 mps 745 mmHg 68%
    19:00 +5°C° 0 mm 3 mps 746 mmHg 68%
    20:00 +5°C° 0 mm 4 mps 746 mmHg 68%
    21:00 +5°C° 0 mm 4 mps 746 mmHg 68%
    22:00 +5°C° 0 mm 4 mps 746 mmHg 68%
    23:00 +5°C° 0 mm 4 mps 746 mmHg 69%

    4 April, Saturday

    Time Temperature Precipitation Wind Pressure Humidity
    00:00 +4°C° 0 mm 4 mps 746 mmHg 69%
    01:00 +4°C° 0 mm 4 mps 746 mmHg 70%
    02:00 +4°C° 0 mm 4 mps 746 mmHg 70%
    03:00 +4°C° 0 mm 4 mps 745 mmHg 71%
    04:00 +2°C° 0 mm 5 mps 746 mmHg 71%
    05:00 +2°C° 0 mm 5 mps 746 mmHg 71%
    06:00 +2°C° 0 mm 5 mps 746 mmHg 71%
    07:00 +3°C° 0 mm 5 mps 746 mmHg 67%
    08:00 +5°C° 0 mm 5 mps 746 mmHg 63%
    09:00 +5°C° 0 mm 6 mps 746 mmHg 58%
    10:00 +7°C° 0 mm 6 mps 746 mmHg 55%
    11:00 +8°C° 0 mm 6 mps 746 mmHg 53%
    12:00 +9°C° 0 mm 6 mps 746 mmHg 50%
    13:00 +9°C° 0.1 mm 6 mps 746 mmHg 52%
    14:00 +9°C° 0.1 mm 6 mps 746 mmHg 53%
    15:00 +9°C° 0.1 mm 6 mps 746 mmHg 55%
    16:00 +7°C° 0.3 mm 5 mps 746 mmHg 66%
    17:00 +5°C° 0.3 mm 4 mps 746 mmHg 78%
    18:00 +3°C° 0.3 mm 4 mps 746 mmHg 89%
    19:00 +3°C° 0.4 mm 3 mps 747 mmHg 90%
    20:00 +2°C° 0.4 mm 3 mps 747 mmHg 90%
    21:00 +3°C° 0.4 mm 2 mps 748 mmHg 90%
    22:00 +3°C° 0 mm 2 mps 749 mmHg 88%
    23:00 +1°C° 0 mm 3 mps 749 mmHg 86%
    Show more